Flag for Germany Weather past 2 weeks in Forchheim, Bavaria, Germany

Now
45 °F

Light rain. Overcast.


Feels Like: 42 °F
Forecast: 32 / 59 °F
Wind: 6 mph from North

Location: Bamberg

Current Time: Apr 28, 2015 at 4:30:06 AM

Latest Report: Apr 28, 2015 at 4:00 AM


Visibility: 4 mi

Pressure: 29.71 "Hg

Humidity: 88%

Dew point: 42 °F

Location of ForchheimLocation

Historic Weather in Forchheim — Graph

°F

Forchheim temperature yesterday

Maximum temperature yesterday: 70 °F (at 3:00 PM)
Minimum temperature yesterday: 47 °F (at 1:00 AM)
Average temperature yesterday: 59 °F

Past Weeks' High & Low Weather Summary

 TemperatureHumidityPressure
High76 °F (Apr 15, 6:00 PM)97% (Apr 13, 4:00 AM)30.49 "Hg (Apr 13, 4:00 AM)
Low26 °F (Apr 19, 6:00 AM)21% (Apr 21, 6:00 PM)29.50 "Hg (Apr 27, 6:00 PM)
Average51 °F63%30.09 "Hg
* Reported Apr 13 3:00 AM — Apr 28 3:00 AM, Forchheim, Weather by CustomWeather, © 2015

Note: Actual official high and low records may vary slightly from our data, if they occured in-between our weather recording intervals... More about our weather records

Advertising

Forchheim weather history for previous 24 hours

 ConditionsComfort  
Time TempWeatherWind HumidityBarometerVisibility
3:00 AM
Tue, Apr 28
46 °FLight rain. Overcast.5 mph89%29.70 "Hg3 mi
2:00 AM48 °FLight rain. Overcast.5 mph80%29.70 "Hg6 mi
1:00 AM49 °FLight rain. Overcast.3 mph82%29.68 "Hg9 mi
12:00 AM51 °FOvercast.6 mph77%29.65 "Hg19 mi
11:00 PM
Mon, Apr 27
53 °FPassing clouds.6 mph76%29.63 "Hg22 mi
10:00 PM54 °FPassing clouds.6 mph76%29.62 "Hg31 mi
9:00 PM55 °FPassing clouds.6 mph77%29.61 "Hg19 mi
8:00 PM58 °FOvercast.7 mph74%29.59 "Hg17 mi
7:00 PM63 °FOvercast.7 mph66%29.54 "Hg25 mi
6:00 PM67 °FOvercast.7 mph58%29.50 "Hg31 mi
5:00 PM69 °FOvercast.6 mph50%29.53 "Hg28 mi
4:00 PM69 °FOvercast.6 mph50%29.54 "Hg19 mi
3:00 PM70 °FOvercast.3 mph49%29.54 "Hg25 mi
2:00 PM68 °FOvercast.5 mph53%29.55 "Hg31 mi
1:00 PM68 °FOvercast.5 mph56%29.56 "Hg19 mi
12:00 PM68 °FOvercast.2 mph55%29.57 "Hg28 mi
11:00 AM66 °FOvercast.2 mph56%29.57 "Hg31 mi
10:00 AM64 °FOvercast.1 mph62%29.57 "Hg22 mi
9:00 AM58 °FOvercast.1 mph77%29.58 "Hg17 mi
8:00 AM55 °FOvercast.1 mph90%29.60 "Hg10 mi
7:00 AM53 °FLow clouds.1 mph93%29.60 "Hg11 mi
6:00 AM56 °FOvercast.2 mph78%29.60 "Hg22 mi
5:00 AM54 °FOvercast.2 mph84%29.59 "Hg19 mi
4:00 AM52 °FOvercast.1 mph91%29.62 "Hg18 mi
Weather by CustomWeather, © 2015

See weather overviewHow to use our weather pages